Location: Hermaringen
(48.5952°N, 10.2585°E)
Time: 23:29:42
(UTC+00:00)

Courier 1B Rocket - Visible Passes

Search period start: 16 February 2026 00:00
Search period end: 26 February 2026 00:00
Orbit: 920 x 1201 km, 28.2° (Epoch: 16 February)

Date Brightness Start Highest point End Pass type
(mag) Time Alt. Az. Time Alt. Az. Time Alt. Az.
19 Feb 7.0 18:49:51 10° S 18:50:21 10° S 18:50:51 10° SSE visible
20 Feb 7.2 19:39:55 10° SSW 19:40:31 11° S 19:40:31 11° S visible
21 Feb 7.0 18:39:25 10° S 18:40:46 11° S 18:42:06 10° SSE visible
23 Feb 7.1 18:29:59 10° SSW 18:31:10 11° S 18:32:21 10° S visible
24 Feb 7.2 17:29:13 10° S 17:30:25 11° S 17:31:37 10° SSE visible
